This is the latest recevied weather packets stored in our database for station/object K5SVV. If no packets are shown the sender has not sent any weather packets the latest 10 day(s).
| Time | Temp. | Humidity | Pressure | Rain* | Wind** | Luminosity | Snow |
|---|---|---|---|---|---|---|---|
| 1777904293 | 19.44° C | 75% | 1013 hPa | 0 mm | - | 422 W/m² | - |
| 1777903990 | 19.44° C | 75% | 1013 hPa | 0 mm | - | 399 W/m² | - |
| 1777903686 | 18.89° C | 75% | 1013.2 hPa | 0 mm | - | 396 W/m² | - |
| 1777903382 | 18.89° C | 76% | 1013.2 hPa | 0 mm | - | 360 W/m² | - |
| 1777903079 | 18.89° C | 76% | 1013.1 hPa | 0 mm | - | 337 W/m² | - |
| 1777902775 | 18.33° C | 77% | 1013.1 hPa | 0 mm | - | 306 W/m² | - |
| 1777902473 | 18.33° C | 77% | 1013.1 hPa | 0 mm | - | 286 W/m² | - |
| 1777902170 | 17.78° C | 78% | 1012.8 hPa | 0 mm | - | 291 W/m² | - |
| 1777901868 | 17.78° C | 78% | 1012.9 hPa | 0 mm | - | 225 W/m² | - |
| 1777901565 | 17.78° C | 78% | 1013.1 hPa | 0 mm | - | 219 W/m² | - |
| 1777901262 | 17.78° C | 78% | 1013.4 hPa | 0 mm | - | 218 W/m² | - |
| 1777900960 | 17.78° C | 78% | 1013.2 hPa | 0 mm | - | 221 W/m² | - |
| 1777900657 | 17.22° C | 78% | 1013 hPa | 0 mm | - | 201 W/m² | - |
| 1777900354 | 17.22° C | 79% | 1013.1 hPa | 0 mm | - | 210 W/m² | - |
| 1777900051 | 17.22° C | 80% | 1013 hPa | 0 mm | - | 181 W/m² | - |
| 1777899747 | 16.67° C | 80% | 1012.9 hPa | 0 mm | - | 161 W/m² | - |
| 1777899444 | 16.67° C | 81% | 1013.1 hPa | 0 mm | - | 128 W/m² | - |
| 1777899142 | 16.67° C | 81% | 1013 hPa | 0 mm | - | 120 W/m² | - |
| 1777898839 | 16.11° C | 82% | 1012.9 hPa | 0 mm | - | 91 W/m² | - |
| 1777898537 | 16.11° C | 82% | 1012.7 hPa | 0 mm | - | 69 W/m² | - |
| 1777898234 | 16.11° C | 83% | 1012.5 hPa | 0 mm | - | 56 W/m² | - |
| 1777897931 | 15.56° C | 83% | 1012.8 hPa | 0 mm | - | 48 W/m² | - |
| 1777897627 | 15.56° C | 83% | 1012.8 hPa | 0 mm | - | 44 W/m² | - |
| 1777897323 | 15.56° C | 84% | 1012.6 hPa | 0 mm | - | 40 W/m² | - |
| 1777897019 | 15.56° C | 84% | 1012.8 hPa | 0 mm | - | 36 W/m² | - |
* Rain latest hour (hover to see other rain measurements)
** Current wind speed in m/s (hover to see current wind gust speed)